Weather History for Gustavus, AK

Change the Weather History Date:

Friday, August 10, 2012

  Actual Average Record
Temperature  
Mean Temperature 55 °F -  
Max Temperature 62 °F 63 °F 83 °F (1957)
Min Temperature 48 °F 48 °F 34 °F (1987)
Degree Days  
Heating Degree Days 10    
Growing Degree Days 5 (Base 50)    
Moisture  
Dew Point 48 °F    
Average Humidity 75    
Maximum Humidity 93    
Minimum Humidity 59    
Precipitation  
Precipitation 0.00 in - - ()
Sea Level Pressure  
Sea Level Pressure 30.17 in    
Wind  
Wind Speed 1 mph (WSW)    
Max Wind Speed 7 mph    
Max Gust Speed -    
Visibility 9 miles    
Events      
Averages and records for this station are not official NWS values.
T = Trace of Precipitation, MM = Missing Value Source: NWS Daily Summary

Daily Weather History Graph

Daily Weather History Graph

Search for Another Location

Airport:

Trip Planner

Search our weather history database for the weather conditions in past years. The results will help you decide how hot, cold, wet, or windy it might be!

Date:

Astronomy

Aug. 10, 2012 Rise Set
Actual Time 5:14 AM AKDT 8:59 PM AKDT
Civil Twilight 4:24 AM AKDT 9:49 PM AKDT
Nautical Twilight 3:11 AM AKDT 11:01 PM AKDT
Astronomical Twilight 1:40 AM AKDT 12:35 AM AKDT
Moon 11:24 PM AKDT (8/10) 4:11 PM AKDT (8/10)
Length of Visible Light 17h 24m
Length of Day
15h 45m
Last Quarter, 40% of the Moon is Illuminated
Aug 10
Last Quarter
Aug 17
New
Aug 24
First Quarter
Aug 31
Full
Sep 8
Last Quarter

Hourly Weather History & Observations

Time (AKDT) Temp. Dew Point Humidity Pressure Visibility Wind Dir Wind Speed Gust Speed Precip Events Conditions
12:16 AM 53.6 °F 48.2 °F 82% 30.18 in 10.0 mi Calm Calm - N/A   Overcast
12:36 AM 53.6 °F 48.2 °F 82% 30.19 in 10.0 mi Calm Calm - N/A   Overcast
12:56 AM 53.6 °F 48.2 °F 82% 30.19 in 10.0 mi Calm Calm - N/A   Overcast
1:16 AM 53.6 °F 48.2 °F 82% 30.19 in 10.0 mi Calm Calm - N/A   Overcast
1:36 AM 53.6 °F 48.2 °F 82% 30.18 in 10.0 mi Calm Calm - N/A   Overcast
1:56 AM 51.8 °F 48.2 °F 88% 30.18 in 10.0 mi Calm Calm - N/A   Overcast
2:16 AM 51.8 °F 48.2 °F 88% 30.18 in 10.0 mi Calm Calm - N/A   Overcast
2:36 AM 51.8 °F 48.2 °F 88% 30.18 in 10.0 mi Calm Calm - N/A   Overcast
2:56 AM 51.8 °F 48.2 °F 88% 30.18 in 10.0 mi Calm Calm - N/A   Overcast
3:16 AM 51.8 °F 48.2 °F 88% 30.17 in 10.0 mi Calm Calm - N/A   Overcast
3:36 AM 51.8 °F 48.2 °F 88% 30.17 in 10.0 mi Calm Calm - N/A   Overcast
3:56 AM 51.8 °F 48.2 °F 88% 30.17 in 10.0 mi Calm Calm - N/A   Overcast
4:16 AM 51.8 °F 48.2 °F 88% 30.17 in 10.0 mi Calm Calm - N/A   Overcast
4:36 AM 51.8 °F 48.2 °F 88% 30.17 in 10.0 mi Calm Calm - N/A   Overcast
4:56 AM 51.8 °F 46.4 °F 82% 30.17 in 6.0 mi Calm Calm - N/A   Overcast
5:16 AM 51.8 °F 46.4 °F 82% 30.17 in 5.0 mi Calm Calm - N/A   Overcast
5:36 AM 50.0 °F 46.4 °F 87% 30.17 in 0.2 mi Calm Calm - N/A   Overcast
5:56 AM 50.0 °F 46.4 °F 87% 30.17 in 0.2 mi Calm Calm - N/A   Overcast
6:16 AM 48.2 °F 46.4 °F 93% 30.18 in 0.2 mi Calm Calm - N/A   Overcast
6:36 AM 48.2 °F 46.4 °F 93% 30.18 in 0.5 mi Calm Calm - N/A   Overcast
6:56 AM 50.0 °F 46.4 °F 87% 30.18 in 3.0 mi Calm Calm - N/A   Overcast
7:16 AM 51.8 °F 48.2 °F 88% 30.18 in 10.0 mi Calm Calm - N/A   Mostly Cloudy
7:36 AM 51.8 °F 48.2 °F 88% 30.18 in 10.0 mi Calm Calm - N/A   Partly Cloudy
7:56 AM 51.8 °F 48.2 °F 88% 30.18 in 10.0 mi Calm Calm - N/A   Mostly Cloudy
8:16 AM 53.6 °F 48.2 °F 82% 30.18 in 10.0 mi Calm Calm - N/A   Overcast
8:36 AM 53.6 °F 48.2 °F 82% 30.18 in 10.0 mi Calm Calm - N/A   Mostly Cloudy
8:56 AM 53.6 °F 48.2 °F 82% 30.18 in 10.0 mi Calm Calm - N/A   Scattered Clouds
9:16 AM 55.4 °F 48.2 °F 77% 30.18 in 10.0 mi Calm Calm - N/A   Mostly Cloudy
9:36 AM 55.4 °F 48.2 °F 77% 30.18 in 10.0 mi Calm Calm - N/A   Scattered Clouds
9:56 AM 57.2 °F 50.0 °F 77% 30.18 in 10.0 mi NW 4.6 mph - N/A   Mostly Cloudy
10:16 AM 57.2 °F 48.2 °F 72% 30.18 in 10.0 mi WNW 3.5 mph - N/A   Overcast
10:36 AM 57.2 °F 48.2 °F 72% 30.18 in 10.0 mi Calm Calm - N/A   Overcast
10:56 AM 57.2 °F 48.2 °F 72% 30.18 in 10.0 mi Calm Calm - N/A   Overcast
11:16 AM 57.2 °F 48.2 °F 72% 30.18 in 10.0 mi Calm Calm - N/A   Mostly Cloudy
11:36 AM 59.0 °F 48.2 °F 67% 30.18 in 10.0 mi NW 3.5 mph - N/A   Mostly Cloudy
11:56 AM 59.0 °F 48.2 °F 67% 30.17 in 10.0 mi Calm Calm - N/A   Mostly Cloudy
12:16 PM 60.8 °F 48.2 °F 63% 30.18 in 10.0 mi NW 3.5 mph - N/A   Scattered Clouds
12:36 PM 60.8 °F 48.2 °F 63% 30.17 in 10.0 mi WNW 3.5 mph - N/A   Mostly Cloudy
12:56 PM 60.8 °F 50.0 °F 68% 30.17 in 10.0 mi WNW 4.6 mph - N/A   Overcast
1:16 PM 60.8 °F 50.0 °F 68% 30.17 in 10.0 mi SSW 4.6 mph - N/A   Overcast
1:36 PM 60.8 °F 50.0 °F 68% 30.18 in 10.0 mi SSW 4.6 mph - N/A   Mostly Cloudy
1:56 PM 60.8 °F 48.2 °F 63% 30.18 in 10.0 mi South 5.8 mph - N/A   Partly Cloudy
2:16 PM 60.8 °F 48.2 °F 63% 30.18 in 10.0 mi South 3.5 mph - N/A   Mostly Cloudy
2:36 PM 60.8 °F 48.2 °F 63% 30.18 in 10.0 mi Calm Calm - N/A   Scattered Clouds
2:56 PM 62.6 °F 50.0 °F 63% 30.18 in 10.0 mi SW 6.9 mph - N/A   Mostly Cloudy
3:16 PM 62.6 °F 48.2 °F 59% 30.18 in 10.0 mi WSW 4.6 mph - N/A   Overcast
3:36 PM 62.6 °F 48.2 °F 59% 30.18 in 10.0 mi Calm Calm - N/A   Overcast
3:56 PM 62.6 °F 50.0 °F 63% 30.17 in 10.0 mi SE 4.6 mph - N/A   Overcast
4:16 PM 60.8 °F 50.0 °F 68% 30.17 in 10.0 mi Calm Calm - N/A   Overcast
4:36 PM 62.6 °F 48.2 °F 59% 30.17 in 10.0 mi SE 3.5 mph - N/A   Overcast
4:56 PM 62.6 °F 48.2 °F 59% 30.17 in 10.0 mi SSE 3.5 mph - N/A   Overcast
5:16 PM 62.6 °F 50.0 °F 63% 30.16 in 10.0 mi Calm Calm - N/A   Mostly Cloudy
5:36 PM 62.6 °F 50.0 °F 63% 30.16 in 10.0 mi SE 3.5 mph - N/A   Overcast
5:56 PM 60.8 °F 50.0 °F 68% 30.16 in 10.0 mi SE 4.6 mph - N/A   Overcast
6:16 PM 60.8 °F 48.2 °F 63% 30.16 in 10.0 mi South 3.5 mph - N/A   Overcast
6:36 PM 60.8 °F 50.0 °F 68% 30.16 in 10.0 mi SW 3.5 mph - N/A   Overcast
6:56 PM 60.8 °F 50.0 °F 68% 30.16 in 10.0 mi SW 3.5 mph - N/A   Overcast
7:16 PM 60.8 °F 48.2 °F 63% 30.16 in 10.0 mi West 3.5 mph - N/A   Overcast
7:36 PM 60.8 °F 48.2 °F 63% 30.15 in 10.0 mi West 3.5 mph - N/A   Overcast
7:56 PM 59.0 °F 48.2 °F 67% 30.15 in 10.0 mi WNW 3.5 mph - N/A   Overcast
8:16 PM 57.2 °F 48.2 °F 72% 30.15 in 10.0 mi NW 5.8 mph - N/A   Overcast
8:36 PM 57.2 °F 48.2 °F 72% 30.15 in 10.0 mi WNW 3.5 mph - N/A   Overcast
8:56 PM 57.2 °F 46.4 °F 67% 30.15 in 10.0 mi NW 5.8 mph - N/A   Overcast
9:16 PM 55.4 °F 46.4 °F 72% 30.15 in 10.0 mi NNW 5.8 mph - N/A   Overcast
9:36 PM 55.4 °F 46.4 °F 72% 30.15 in 10.0 mi NW 4.6 mph - N/A   Overcast
9:56 PM 55.4 °F 46.4 °F 72% 30.15 in 10.0 mi NW 4.6 mph - N/A   Overcast
10:16 PM 55.4 °F 46.4 °F 72% 30.15 in 10.0 mi NW 3.5 mph - N/A   Overcast
10:36 PM 55.4 °F 46.4 °F 72% 30.16 in 10.0 mi Calm Calm - N/A   Overcast
10:56 PM 55.4 °F 46.4 °F 72% 30.16 in 10.0 mi Calm Calm - N/A   Overcast
11:16 PM 53.6 °F 48.2 °F 82% 30.16 in 10.0 mi Calm Calm - N/A   Overcast
11:36 PM 53.6 °F 48.2 °F 82% 30.16 in 10.0 mi Calm Calm - N/A   Overcast
11:56 PM 53.6 °F 46.4 °F 77% 30.16 in 10.0 mi Calm Calm - N/A   Overcast